#timestamp,LO_Frequency,Hit,StdDev 
1599210015.3,286047000.8,N
1599210035.1,286047000.1,N
1599210036.0,286047000.1,N
1599210055.8,286047001.9,N
1599210075.7,286047002.7,N
1599210095.5,286046999.9,N
1599210115.3,286047001.0,N
1599210135.2,286047000.4,N
1599210155.0,286047000.1,N
1599210155.9,286047000.1,N
1599210175.8,286047001.0,N
1599210195.6,286046998.1,N
1599210215.4,286047001.0,N
1599210235.3,286047001.2,N
1599210255.1,286047000.4,N
1599210275.8,286046998.5,N
1599210295.7,286047001.2,N
1599210315.5,286046998.8,N
1599210335.4,286046998.3,N
1599210355.2,286047000.7,N
1599210375.0,286046998.8,N
1599210375.9,286046998.8,N
1599210395.8,286046999.0,N
1599210415.6,286046998.7,N
1599210435.4,286046998.2,N
1599210455.3,286047001.1,N
1599210475.1,286047000.4,N
1599210495.9,286047000.5,N
1599210515.7,286047000.0,N
1599210535.5,286046999.9,N
1599210555.4,286047002.7,N
1599210575.2,286046999.7,N
1599210595.0,286047000.2,N
1599210596.0,286047000.2,N
1599210615.8,286047000.7,N
1599210635.6,286047000.7,N
1599210655.5,286047000.0,N
1599210675.3,286046998.2,N
1599210695.1,286047000.8,N
1599210715.9,286047000.7,N
1599210735.7,286047000.8,N
1599210755.6,286046998.5,N
1599210775.4,286046998.7,N
1599210795.2,286046998.2,N
1599210815.1,286047000.0,N
1599210816.0,286047000.0,N
1599210835.8,286047000.0,N
1599210855.7,286047001.1,N
1599210875.5,286046998.6,N
1599210895.3,286046998.8,N
1599210915.2,286046998.4,N
1599210935.9,286047001.2,N
1599210955.7,286046998.8,N
1599210975.6,286046998.8,N
1599210995.4,286046999.0,N
1599211015.3,286046996.6,Y
1599211035.1,286046999.0,P
1599211055.8,286046999.0,N
1599211075.7,286046998.9,N
1599211095.5,286046999.4,N
1599211115.4,286046998.9,Y
1599211135.2,286046998.5,P
1599211155.0,286047000.8,N
1599211155.9,286047000.8,N
1599211175.8,286046998.5,N
1599211195.6,286046998.2,N
1599211215.4,286046998.1,N
1599211235.3,286046998.4,N
1599211255.1,286046998.7,N
1599211275.9,286047001.1,N
1599211295.7,286046998.9,N
1599211315.5,286047001.2,N
1599211335.4,286046999.0,N
1599211355.2,286046996.7,N
1599211375.0,286046996.7,N
1599211375.9,286046996.7,N
1599211395.8,286046999.0,N
1599211415.6,286047001.2,N
1599211435.5,286047000.9,N
1599211455.3,286047000.8,N
1599211475.1,286046999.8,N
1599211495.9,286046998.3,N
1599211515.7,286046998.1,N
1599211535.5,286046999.4,N
1599211555.4,286046999.3,N
1599211575.2,286046996.8,N
1599211595.1,286046996.5,N
1599211596.0,286046996.5,N
1599211615.8,286046997.0,N
1599211635.6,286046997.3,N
1599211655.5,286046997.4,N
1599211675.3,286046995.0,Y
1599211695.1,286046997.4,P
1599211715.9,286046999.6,N
1599211735.7,286046997.3,P
1599211755.6,286046997.6,N
1599211775.4,286046999.4,N
1599211795.2,286046998.1,N
1599211815.1,286047001.2,N
1599211816.0,286047001.2,N
1599211835.8,286047001.0,N
1599211855.6,286047000.5,N
1599211875.5,286046998.6,N
1599211895.3,286047000.3,N
1599211915.2,286047000.8,N
1599211935.0,286047000.7,N
1599211935.9,286047000.7,N
1599211955.7,286047000.0,N
1599211975.6,286046999.8,N
1599211995.4,286047000.0,N
1599212015.3,286047000.5,N
1599212035.1,286047001.1,N
1599212036.0,286047001.1,N
1599212055.8,286047001.0,N
1599212075.7,286047000.2,N
1599212095.5,286047000.6,N
1599212115.3,286046998.6,N
1599212135.2,286046998.7,N
1599212155.0,286046999.1,N
1599212155.9,286046999.1,N
1599212175.8,286046997.2,N
1599212195.6,286046997.8,N
1599212215.4,286046999.3,N
1599212235.3,286046999.1,N
1599212255.1,286046998.8,N
1599212275.8,286046998.3,N
1599212295.7,286046999.2,N
1599212315.5,286046998.9,N
1599212335.4,286046996.8,N
1599212355.2,286046997.7,N
1599212375.1,286046999.3,N
1599212376.0,286046999.3,N
1599212395.8,286046997.2,N
1599212415.6,286046997.1,N
1599212435.5,286046997.5,N
1599212455.3,286046996.7,N
1599212475.1,286046996.6,N
1599212495.9,286046997.4,N
1599212515.7,286046996.5,N
1599212535.6,286046996.8,N
1599212555.4,286046996.8,N
1599212575.2,286046997.2,N
1599212595.1,286046997.0,N
1599212596.0,286046997.0,N
1599212615.8,286046994.9,Y
1599212635.6,286046996.6,P
1599212655.5,286046997.8,P
1599212675.3,286046997.8,P
1599212695.2,286046997.4,Y
1599212715.9,286046998.7,P
1599212735.7,286046998.3,P
1599212755.6,286046998.3,P
1599212775.4,286047001.2,N
1599212795.3,286047000.7,N
1599212815.1,286047000.5,N
1599212835.8,286046999.9,N
1599212855.7,286046999.8,N
1599212875.5,286047001.8,N
1599212895.4,286047003.8,N
1599212915.2,286047004.2,N
1599212935.0,286047001.6,N
1599212935.9,286047001.6,N
1599212955.8,286047001.7,N
1599212975.6,286047002.4,N
1599212995.4,286047001.5,N
1599213015.3,286047001.7,N
1599213035.1,286047001.3,N
1599213055.9,286047001.3,N
1599213075.7,286047011.9,Y
1599213095.5,286047002.6,P
1599213115.4,286047002.6,P
1599213135.2,286047002.4,N
1599213155.0,286046999.8,N
1599213155.9,286046999.8,N
1599213175.8,286047000.1,N
1599213195.6,286047002.7,N
1599213215.5,286047000.0,N
1599213235.3,286047000.2,N
1599213255.1,286047000.2,N
1599213275.9,286046999.9,N
1599213295.7,286047000.2,N
1599213315.5,286047000.1,N
1599213335.4,286047000.6,N
1599213355.2,286047002.8,N
1599213375.1,286047002.3,N
1599213376.0,286047002.3,N
1599213395.8,286047000.1,N
1599213415.6,286046999.8,N
1599213435.5,286047002.5,N
1599213455.3,286047002.5,N
1599213475.2,286047002.2,N
1599213495.9,286047002.2,N
1599213515.7,286047002.1,N
1599213535.6,286047000.0,N
1599213555.4,286047002.7,N
1599213575.2,286047002.8,N
1599213595.1,286047002.3,N
1599213596.0,286047002.3,N
